Regional Weather Roundup
Issued by NWS Newport/Morehead, NC

Current Version | Previous Version | Graphics & Text | Print | Product List | Glossary Off
Versions: 1 2 3 4 5 6 7 8 9 10 11 12 13 14 15 16 17 18 19 20 21 22 23 24 25 26 27 28 29 30 31 32 33 34 35 36 37 38 39 40 41 42 43 44 45 46 47 48 49 50

000
ASUS42 KMHX 271413
RWRMHX
WEATHER ROUNDUP FOR EASTERN NORTH CAROLINA
NATIONAL WEATHER SERVICE NEWPORT/MOREHEAD CITY NC
1000 AM EDT FRI MAY 27 2016

NOTE: "FAIR" INDICATES FEW OR NO CLOUDS BELOW 12,000 FEET
WITH NO SIGNIFICANT WEATHER AND/OR OBSTRUCTIONS TO VISIBILITY

NCZ015>017-031-032-045>047-102-103-271500-
NORTH COAST

CITY           SKY/WX    TMP DP  RH WIND       PRES   REMARKS
EDENTON        MOSUNNY  N/A N/A N/A S7        30.17F
ELIZABETH CITY SUNNY     78  62  57 SW9       30.16F
KITTY HAWK     SUNNY     80  60  50 S3        30.17S
MANTEO         NOT AVBL

$$

NCZ045>047-081-094-103-104-271500-
CENTRAL COAST

CITY           SKY/WX    TMP DP  RH WIND       PRES   REMARKS
FRISCO         SUNNY     79  58  48 S6        30.19F

$$

NCZ095-097-098-100-101-271500-
SOUTHERN COAST

CITY           SKY/WX    TMP DP  RH WIND       PRES   REMARKS
BEAUFORT       SUNNY     78  61  55 VRB6      30.18S
CEDAR ISLAND   NOT AVBL
JACKSONVILLE   SUNNY     79  62  56 E6        30.17S
PINEY ISLAND   SUNNY    N/A N/A N/A SE5       30.18S
WILMINGTON     SUNNY     79  60  52 VRB3      30.17S


$$

NCZ011>013-027>030-043-044-078>080-089-090>093-098-271500-
COASTAL PLAIN

CITY           SKY/WX    TMP DP  RH WIND       PRES   REMARKS
AHOSKIE        SUNNY     77  65  65 S5        30.16S
CLINTON        MOSUNNY   76  65  67 CALM      30.18R
ELIZABETHTOWN  SUNNY     78  60  55 S3        30.17F
GOLDSBORO      MOSUNNY   79  64  59 SW9       30.16S
GREENVILLE     MOSUNNY   79  63  57 SW9       30.18S
HAVELOCK       SUNNY     79  60  52 SE5       30.19S
KENANSVILLE    SUNNY     77  61  56 CALM      30.18S
KINSTON        SUNNY     79  61  53 SW5       30.18S
NEW BERN       SUNNY     79  61  53 SW5       30.19S
RICHLANDS      SUNNY     78  60  53 S7        30.18S
ROCKY MOUNT    SUNNY     78  65  63 SW12      30.16S
WASHINGTON     SUNNY     77  62  58 S6        30.17F
WHITEVILLE     SUNNY     77  60  54 CALM      30.16F

$$

AMZ130-135-150-152-154-156-158-170-250-252-270-ANZ085-086-088-633-658-670-271500-
MARINE OBSERVATIONS

STATION/POSITION TIME  TEMP    WIND        PRES    WAVE   SWELL
                       AIR SEA DIR/SP/G            HT/PER HT/PER
                 (UTC) (F)     (DEG/KT/KT) (MB)    (FT/S) (FT/S)
CHESAPEAKE LIGHT 1400   69     190/ 13/ 13 1021.6
64 E VA BEACH    1350   64 60  170/  8/ 10 1021.6    2/ 8   2/ 8
DUCK             1300   73 60  200/  8/ 11 1021.1
2 E DUCK         1311      63                N/A     1/ 9
OREGON INLET     1300   75 75  170/  6/  7 1022.1
13E OREGON INLT  1300      65                N/A     2/ 8   2/ 8
HATTERAS CG      1300   76 71  140/  4/  5 1021.8
DIAMOND BUOY     1350   77 81   20/  2/  4 1022.3    2/ 8   2/ 8
CAPE LOOKOUT     1400   74      90/  4/  5 1021.8
BEAUFORT LAB     1300   76 72  140/  3/  5 1021.4
30 SE NEW RVR IN 1325      74                N/A     2/ 7
27 SE WRIGHTSVLE 1308   76 74   90/  6/  8 1021.8
5 SE WRIGHTSVLE  1308   73 73   70/  4/  6 1022.6
225 S CAPE HAT   1350   74 78   60/ 14/ 17 1019.7    3/ 4   2/ 7
41 SE CHARLESTON 1350   76 77   40/ 12/ 14 1020.3    3/ 5   2/ 8

$$




USA.gov is the U.S. government's official web portal to all federal, state and local government web resources and services.